Location: Poughquag
(41.6090°N, 73.6820°W)
Time: 12:46:07
(UTC-04:00)

A-11 Canister half - Pass Details

Date: 05 June 2020
Orbit: 1527 x 1682 km, 47.3° (Epoch: 06 July)

Event Time Altitude Azimuth Distance (km) Brightness Sun altitude
Rises 06:38:21 0° 233° (SW) 4,679 10.9 12.1°
Reaches altitude 10° 06:41:23 10° 232° (SW) 3,691 10.5 12.7°
Maximum altitude 06:50:39 77° 148° (SSE) 1,564 9.4 14.3°
Drops below altitude 10° 07:00:01 10° 65° (ENE) 3,729 13.4 16.0°
Sets 07:03:06 0° 64° (ENE) 4,729 13.2 16.5°
